| time (UTC) | temp F | wind direction | speed knots | gust knots | rain 1hr in | rain 24hr in | rain mn in | humidity % | barometer mb |
| 20260505214542 | 72 | 225 | 11.3 | 13.0 | 0.00 | 0.00 | 0.00 | 32 | 1004.4 |
| 20260505214038 | 71 | 227 | 8.7 | 9.6 | 0.00 | 0.00 | 0.00 | 33 | 1004.6 |
| 20260505213536 | 72 | 234 | 7.8 | 8.7 | 0.00 | 0.00 | 0.00 | 32 | 1004.6 |
| 20260505213032 | 71 | 245 | 9.6 | 14.8 | 0.00 | 0.00 | 0.00 | 33 | 1004.7 |
| 20260505212528 | 72 | 255 | 12.2 | 13.9 | 0.00 | 0.00 | 0.00 | 33 | 1005.0 |
| 20260505212026 | 71 | 240 | 12.2 | 16.5 | 0.00 | 0.00 | 0.00 | 33 | 1004.8 |
| 20260505211523 | 71 | 268 | 8.7 | 10.4 | 0.00 | 0.00 | 0.00 | 34 | 1004.8 |
| 20260505211019 | 71 | 248 | 7.8 | 13.0 | 0.00 | 0.00 | 0.00 | 33 | 1005.3 |
| 20260505210516 | 71 | 214 | 10.4 | 10.4 | 0.00 | 0.00 | 0.00 | 33 | 1005.3 |
| 20260505210014 | 70 | 186 | 4.3 | 14.8 | 0.00 | 0.00 | 0.00 | 34 | 1005.0 |
| 20260505205512 | 70 | 239 | 3.5 | 11.3 | 0.00 | 0.00 | 0.00 | 35 | 1005.3 |
| 20260505205008 | 70 | 271 | 5.2 | 8.7 | 0.00 | 0.00 | 0.00 | 35 | 1006.0 |
| 20260505204506 | 71 | 269 | 6.1 | 10.4 | 0.00 | 0.00 | 0.00 | 34 | 1005.7 |
| 20260505204003 | 69 | 206 | 2.6 | 13.9 | 0.00 | 0.00 | 0.00 | 35 | 1006.1 |
| 20260505203459 | 70 | 259 | 13.0 | 13.9 | 0.00 | 0.00 | 0.00 | 35 | 1006.0 |
| 20260505202956 | 70 | 275 | 9.6 | 11.3 | 0.00 | 0.00 | 0.00 | 35 | 1006.2 |
| 20260505202453 | 69 | 254 | 18.2 | 20.0 | 0.00 | 0.00 | 0.00 | 36 | 1006.3 |
| 20260505201948 | 69 | 267 | 20.0 | 24.3 | 0.00 | 0.00 | 0.00 | 35 | 1006.3 |
| 20260505201446 | 69 | 254 | 20.9 | 33.0 | 0.00 | 0.00 | 0.00 | 37 | 1006.3 |
| 20260505200943 | 70 | 256 | 21.7 | 25.2 | 0.00 | 0.00 | 0.00 | 34 | 1006.5 |
| 20260505200441 | 70 | 256 | 16.5 | 17.4 | 0.00 | 0.00 | 0.00 | 32 | 1006.4 |
| 20260505195936 | 69 | 242 | 10.4 | 11.3 | 0.00 | 0.00 | 0.00 | 32 | 1006.2 |
| 20260505195434 | 69 | 236 | 8.7 | 13.9 | 0.00 | 0.00 | 0.00 | 32 | 1006.4 |
| 20260505194931 | 71 | 255 | 6.1 | 12.2 | 0.00 | 0.00 | 0.00 | 30 | 1006.3 |
| 20260505194428 | 70 | 220 | 10.4 | 10.4 | 0.00 | 0.00 | 0.00 | 31 | 1006.3 |
| 20260505193928 | 70 | 326 | 5.2 | 6.1 | 0.00 | 0.00 | 0.00 | 31 | 1006.4 |
| 20260505193426 | 69 | 31 | 1.7 | 6.1 | 0.00 | 0.00 | 0.00 | 32 | 1006.2 |
| 20260505192924 | 69 | 232 | 0.0 | 6.1 | 0.00 | 0.00 | 0.00 | 32 | 1006.5 |
| 20260505192422 | 71 | 117 | 6.1 | 7.0 | 0.00 | 0.00 | 0.00 | 31 | 1006.4 |
| 20260505191919 | 69 | 25 | 3.5 | 5.2 | 0.00 | 0.00 | 0.00 | 31 | 1006.4 |
| 20260505191418 | 69 | 78 | 7.8 | 8.7 | 0.00 | 0.00 | 0.00 | 32 | 1006.9 |
| 20260505190914 | 69 | 99 | 9.6 | 12.2 | 0.00 | 0.00 | 0.00 | 32 | 1006.7 |
| 20260505190409 | 68 | 96 | 9.6 | 9.6 | 0.00 | 0.00 | 0.00 | 32 | 1006.7 |
| 20260505185905 | 69 | 118 | 9.6 | 12.2 | 0.00 | 0.00 | 0.00 | 32 | 1006.6 |
| 20260505185402 | 68 | 326 | 4.3 | 9.6 | 0.00 | 0.00 | 0.00 | 32 | 1006.9 |
| 20260505184858 | 70 | 80 | 10.4 | 20.0 | 0.00 | 0.00 | 0.00 | 32 | 1006.6 |
| 20260505184355 | 68 | 284 | 2.6 | 8.7 | 0.00 | 0.00 | 0.00 | 32 | 1007.1 |
| 20260505183852 | 67 | 22 | 7.0 | 13.0 | 0.00 | 0.00 | 0.00 | 34 | 1007.0 |
| 20260505183349 | 68 | 69 | 10.4 | 13.0 | 0.00 | 0.00 | 0.00 | 33 | 1007.0 |
| 20260505182846 | 66 | 72 | 3.5 | 9.6 | 0.00 | 0.00 | 0.00 | 35 | 1007.2 |
| 20260505182343 | 67 | 117 | 12.2 | 13.0 | 0.00 | 0.00 | 0.00 | 34 | 1007.0 |
| 20260505181839 | 66 | 118 | 11.3 | 12.2 | 0.00 | 0.00 | 0.00 | 34 | 1007.2 |
| 20260505181336 | 66 | 50 | 3.5 | 7.0 | 0.00 | 0.00 | 0.00 | 34 | 1007.4 |
| 20260505180833 | 66 | 43 | 9.6 | 11.3 | 0.00 | 0.00 | 0.00 | 35 | 1007.3 |
| 20260505180330 | 67 | 25 | 5.2 | 7.8 | 0.00 | 0.00 | 0.00 | 34 | 1007.5 |
| 20260505175826 | 65 | 70 | 6.1 | 7.8 | 0.00 | 0.00 | 0.00 | 36 | 1007.7 |
| 20260505175323 | 65 | 21 | 4.3 | 7.8 | 0.00 | 0.00 | 0.00 | 36 | 1007.3 |
| 20260505174819 | 66 | 27 | 7.0 | 8.7 | 0.00 | 0.00 | 0.00 | 35 | 1007.5 |
| 20260505174317 | 64 | 80 | 8.7 | 9.6 | 0.00 | 0.00 | 0.00 | 37 | 1007.7 |
| 20260505173812 | 64 | 11 | 7.8 | 7.8 | 0.00 | 0.00 | 0.00 | 37 | 1007.8 |
| 20260505173309 | 63 | 56 | 6.1 | 6.1 | 0.00 | 0.00 | 0.00 | 38 | 1007.8 |
| 20260505172806 | 63 | 344 | 4.3 | 9.6 | 0.00 | 0.00 | 0.00 | 38 | 1007.7 |
| 20260505172306 | 64 | 11 | 4.3 | 11.3 | 0.00 | 0.00 | 0.00 | 37 | 1007.8 |
| 20260505171758 | 64 | 64 | 4.3 | 13.0 | 0.00 | 0.00 | 0.00 | 38 | 1007.7 |
| 20260505171255 | 63 | 306 | 6.1 | 11.3 | 0.00 | 0.00 | 0.00 | 38 | 1007.7 |
| 20260505170752 | 64 | 8 | 12.2 | 13.0 | 0.00 | 0.00 | 0.00 | 38 | 1007.9 |
| 20260505170249 | 63 | 9 | 7.8 | 11.3 | 0.00 | 0.00 | 0.00 | 38 | 1007.8 |
| 20260505165744 | 63 | 54 | 4.3 | 9.6 | 0.00 | 0.00 | 0.00 | 38 | 1007.5 |
| 20260505165240 | 63 | 334 | 7.0 | 8.7 | 0.00 | 0.00 | 0.00 | 39 | 1007.7 |
| 20260505164736 | 63 | 358 | 7.8 | 11.3 | 0.00 | 0.00 | 0.00 | 39 | 1007.5 |
| 20260505164233 | 62 | 276 | 1.7 | 11.3 | 0.00 | 0.00 | 0.00 | 40 | 1007.5 |
| 20260505163731 | 64 | 7 | 9.6 | 13.9 | 0.00 | 0.00 | 0.00 | 38 | 1007.8 |
| 20260505163230 | 62 | 352 | 7.0 | 10.4 | 0.00 | 0.00 | 0.00 | 40 | 1007.8 |
| 20260505162726 | 63 | 20 | 4.3 | 9.6 | 0.00 | 0.00 | 0.00 | 40 | 1007.7 |
| 20260505162223 | 62 | 28 | 5.2 | 9.6 | 0.00 | 0.00 | 0.00 | 41 | 1007.9 |
| 20260505161720 | 62 | 15 | 4.3 | 9.6 | 0.00 | 0.00 | 0.00 | 41 | 1008.0 |
| 20260505161218 | 60 | 59 | 13.0 | 13.0 | 0.00 | 0.00 | 0.00 | 44 | 1007.9 |
| 20260505160715 | 60 | 7 | 9.6 | 12.2 | 0.00 | 0.00 | 0.00 | 43 | 1008.0 |
| 20260505160213 | 61 | 36 | 6.1 | 9.6 | 0.00 | 0.00 | 0.00 | 44 | 1007.8 |
| 20260505153152 | 59 | 50 | 10.4 | 11.3 | 0.00 | 0.00 | 0.00 | 46 | 1007.7 |
| 20260505152649 | 58 | 69 | 8.7 | 14.8 | 0.00 | 0.00 | 0.00 | 48 | 1008.0 |
| 20260505152144 | 58 | 70 | 6.1 | 9.6 | 0.00 | 0.00 | 0.00 | 48 | 1007.9 |
| 20260505151640 | 57 | 22 | 9.6 | 12.2 | 0.00 | 0.00 | 0.00 | 49 | 1008.1 |
| 20260505151138 | 58 | 358 | 10.4 | 14.8 | 0.00 | 0.00 | 0.00 | 49 | 1008.1 |
| 20260505150633 | 57 | 54 | 9.6 | 13.0 | 0.00 | 0.00 | 0.00 | 49 | 1007.9 |
| 20260505150131 | 57 | 14 | 9.6 | 13.0 | 0.00 | 0.00 | 0.00 | 49 | 1007.7 |
| 20260505140559 | 55 | 2 | 12.2 | 16.5 | 0.00 | 0.00 | 0.00 | 56 | 1007.0 |
| 20260505125013 | 56 | 37 | 4.3 | 13.0 | 0.00 | 0.00 | 0.00 | 55 | 1006.2 |
| 20260505124509 | 56 | 26 | 10.4 | 12.2 | 0.00 | 0.00 | 0.00 | 54 | 1006.2 |
| 20260505124006 | 57 | 0 | 9.6 | 13.9 | 0.00 | 0.00 | 0.00 | 54 | 1006.0 |
| 20260505123502 | 57 | 10 | 11.3 | 15.6 | 0.00 | 0.00 | 0.00 | 53 | 1005.6 |
| 20260505122958 | 57 | 2 | 12.2 | 14.8 | 0.00 | 0.00 | 0.00 | 52 | 1005.6 |
| 20260505122455 | 58 | 26 | 7.8 | 13.0 | 0.00 | 0.00 | 0.00 | 51 | 1005.6 |
| 20260505121952 | 58 | 32 | 7.8 | 14.8 | 0.00 | 0.00 | 0.00 | 49 | 1005.6 |
| 20260505121449 | 59 | 27 | 9.6 | 13.9 | 0.00 | 0.00 | 0.00 | 47 | 1005.7 |
| 20260505120945 | 59 | 19 | 9.6 | 15.6 | 0.00 | 0.00 | 0.00 | 46 | 1005.2 |
| 20260505120442 | 59 | 20 | 9.6 | 13.0 | 0.00 | 0.00 | 0.00 | 43 | 1005.2 |
| 20260505115941 | 60 | 10 | 11.3 | 13.9 | 0.00 | 0.00 | 0.00 | 41 | 1005.5 |
| 20260505115438 | 61 | 326 | 9.6 | 14.8 | 0.00 | 0.00 | 0.00 | 39 | 1005.0 |
| 20260505114936 | 64 | 299 | 14.8 | 15.6 | 0.00 | 0.00 | 0.00 | 32 | 1004.6 |
| 20260505114431 | 64 | 285 | 17.4 | 19.1 | 0.00 | 0.00 | 0.00 | 32 | 1004.5 |
| 20260505113928 | 65 | 289 | 13.0 | 21.7 | 0.00 | 0.00 | 0.00 | 31 | 1004.6 |
| 20260505113425 | 64 | 296 | 19.1 | 20.9 | 0.00 | 0.00 | 0.00 | 31 | 1004.8 |
| 20260505112920 | 65 | 262 | 13.9 | 21.7 | 0.00 | 0.00 | 0.00 | 31 | 1004.5 |
| 20260505112418 | 63 | 335 | 10.4 | 15.6 | 0.00 | 0.00 | 0.00 | 32 | 1005.0 |
| 20260505111914 | 64 | 266 | 12.2 | 16.5 | 0.00 | 0.00 | 0.00 | 32 | 1004.1 |
| 20260505111409 | 64 | 258 | 15.6 | 20.0 | 0.00 | 0.00 | 0.00 | 32 | 1004.0 |
| 20260505110906 | 64 | 258 | 18.2 | 21.7 | 0.00 | 0.00 | 0.00 | 32 | 1003.9 |
| 20260505110403 | 64 | 258 | 13.9 | 21.7 | 0.00 | 0.00 | 0.00 | 32 | 1004.5 |
| 20260505101833 | 62 | 257 | 15.6 | 15.6 | 0.00 | 0.00 | 0.00 | 32 | 1004.0 |
| 20260505101328 | 62 | 252 | 13.0 | 19.1 | 0.00 | 0.00 | 0.00 | 33 | 1004.3 |
| 20260505100824 | 62 | 243 | 16.5 | 18.2 | 0.00 | 0.00 | 0.00 | 33 | 1004.5 |
| 20260505100321 | 64 | 255 | 18.2 | 22.6 | 0.00 | 0.00 | 0.00 | 31 | 1004.4 |
| 20260505095817 | 63 | 259 | 14.8 | 25.2 | 0.00 | 0.00 | 0.00 | 31 | 1004.5 |
| 20260505095315 | 61 | 248 | 14.8 | 21.7 | 0.00 | 0.00 | 0.00 | 33 | 1004.5 |
| 20260505094810 | 64 | 251 | 16.5 | 20.0 | 0.00 | 0.00 | 0.00 | 31 | 1004.3 |
| 20260505094307 | 64 | 250 | 13.9 | 19.1 | 0.00 | 0.00 | 0.00 | 31 | 1004.3 |
| 20260505093803 | 64 | 263 | 14.8 | 18.2 | 0.00 | 0.00 | 0.00 | 31 | 1004.5 |
| 20260505093301 | 64 | 257 | 15.6 | 19.1 | 0.00 | 0.00 | 0.00 | 30 | 1004.4 |
| 20260505092757 | 64 | 262 | 12.2 | 19.1 | 0.00 | 0.00 | 0.00 | 30 | 1004.4 |
| 20260505092256 | 64 | 259 | 13.9 | 19.1 | 0.00 | 0.00 | 0.00 | 30 | 1004.0 |
| 20260505091753 | 64 | 263 | 11.3 | 15.6 | 0.00 | 0.00 | 0.00 | 30 | 1004.4 |
| 20260505091250 | 64 | 263 | 13.9 | 15.6 | 0.00 | 0.00 | 0.00 | 29 | 1004.1 |
| 20260505090748 | 65 | 280 | 12.2 | 15.6 | 0.00 | 0.00 | 0.00 | 29 | 1003.9 |
| 20260505090246 | 65 | 272 | 13.0 | 16.5 | 0.00 | 0.00 | 0.00 | 29 | 1003.8 |
| 20260505085743 | 64 | 266 | 7.8 | 15.6 | 0.00 | 0.00 | 0.00 | 29 | 1004.0 |
| 20260505085241 | 64 | 273 | 10.4 | 14.8 | 0.00 | 0.00 | 0.00 | 29 | 1004.1 |
| 20260505084738 | 64 | 265 | 9.6 | 13.0 | 0.00 | 0.00 | 0.00 | 28 | 1004.3 |
| 20260505084238 | 65 | 253 | 10.4 | 14.8 | 0.00 | 0.00 | 0.00 | 28 | 1004.0 |
| 20260505083734 | 65 | 259 | 10.4 | 14.8 | 0.00 | 0.00 | 0.00 | 27 | 1004.0 |
| 20260505083230 | 66 | 260 | 12.2 | 16.5 | 0.00 | 0.00 | 0.00 | 27 | 1003.8 |
| 20260505082726 | 65 | 255 | 11.3 | 15.6 | 0.00 | 0.00 | 0.00 | 27 | 1004.1 |
| 20260505082224 | 65 | 256 | 11.3 | 15.6 | 0.00 | 0.00 | 0.00 | 27 | 1003.8 |
| 20260505081719 | 66 | 263 | 12.2 | 15.6 | 0.00 | 0.00 | 0.00 | 27 | 1004.0 |
| 20260505081217 | 65 | 253 | 11.3 | 14.8 | 0.00 | 0.00 | 0.00 | 27 | 1003.9 |
| 20260505080714 | 66 | 256 | 10.4 | 18.2 | 0.00 | 0.00 | 0.00 | 26 | 1003.6 |
| 20260505080210 | 66 | 271 | 11.3 | 15.6 | 0.00 | 0.00 | 0.00 | 27 | 1003.7 |
| 20260505075706 | 65 | 265 | 11.3 | 13.9 | 0.00 | 0.00 | 0.00 | 27 | 1003.8 |
| 20260505075203 | 65 | 256 | 13.9 | 15.6 | 0.00 | 0.00 | 0.00 | 27 | 1003.7 |
| 20260505074700 | 65 | 257 | 9.6 | 16.5 | 0.00 | 0.00 | 0.00 | 28 | 1003.6 |
| 20260505074157 | 65 | 266 | 9.6 | 14.8 | 0.00 | 0.00 | 0.00 | 28 | 1003.7 |
| 20260505073654 | 64 | 262 | 12.2 | 14.8 | 0.00 | 0.00 | 0.00 | 29 | 1004.0 |
| 20260505073153 | 64 | 261 | 10.4 | 15.6 | 0.00 | 0.00 | 0.00 | 29 | 1004.1 |
| 20260505072648 | 63 | 252 | 13.9 | 14.8 | 0.00 | 0.00 | 0.00 | 30 | 1003.9 |
| 20260505072145 | 63 | 248 | 11.3 | 13.9 | 0.00 | 0.00 | 0.00 | 30 | 1004.0 |
| 20260505071640 | 63 | 250 | 11.3 | 13.0 | 0.00 | 0.00 | 0.00 | 30 | 1003.9 |
| 20260505071138 | 63 | 247 | 13.0 | 13.9 | 0.00 | 0.00 | 0.00 | 30 | 1004.0 |
| 20260505070635 | 62 | 243 | 9.6 | 11.3 | 0.00 | 0.00 | 0.00 | 32 | 1004.0 |
| 20260505070132 | 62 | 246 | 7.8 | 8.7 | 0.00 | 0.00 | 0.00 | 31 | 1003.9 |
| 20260505065627 | 62 | 247 | 7.0 | 8.7 | 0.00 | 0.00 | 0.00 | 32 | 1003.8 |
| 20260505065124 | 63 | 255 | 7.0 | 7.8 | 0.00 | 0.00 | 0.00 | 31 | 1003.9 |
| 20260505064621 | 63 | 244 | 6.1 | 8.7 | 0.00 | 0.00 | 0.00 | 31 | 1003.9 |
| 20260505064120 | 64 | 250 | 6.1 | 7.8 | 0.00 | 0.00 | 0.00 | 30 | 1003.8 |
| 20260505063617 | 64 | 249 | 7.0 | 10.4 | 0.00 | 0.00 | 0.00 | 30 | 1004.0 |
| 20260505063112 | 65 | 251 | 7.8 | 12.2 | 0.00 | 0.00 | 0.00 | 28 | 1003.9 |
| 20260505062609 | 66 | 240 | 8.7 | 10.4 | 0.00 | 0.00 | 0.00 | 28 | 1003.8 |
| 20260505062106 | 66 | 240 | 8.7 | 12.2 | 0.00 | 0.00 | 0.00 | 27 | 1003.9 |
| 20260505061603 | 66 | 236 | 7.8 | 11.3 | 0.00 | 0.00 | 0.00 | 28 | 1003.9 |
| 20260505061102 | 65 | 239 | 8.7 | 11.3 | 0.00 | 0.00 | 0.00 | 28 | 1003.8 |
| 20260505060559 | 65 | 244 | 8.7 | 10.4 | 0.00 | 0.00 | 0.00 | 29 | 1003.9 |
| 20260505060055 | 65 | 248 | 9.6 | 11.3 | 0.00 | 0.00 | 0.00 | 29 | 1003.9 |
| 20260505055551 | 65 | 247 | 9.6 | 12.2 | 0.00 | 0.00 | 0.00 | 28 | 1004.0 |
| 20260505055048 | 66 | 243 | 11.3 | 13.0 | 0.00 | 0.00 | 0.00 | 27 | 1003.7 |
| 20260505054545 | 67 | 231 | 9.6 | 12.2 | 0.00 | 0.00 | 0.00 | 27 | 1004.0 |
| 20260505054043 | 67 | 230 | 9.6 | 12.2 | 0.00 | 0.00 | 0.00 | 26 | 1003.9 |
| 20260505053540 | 68 | 230 | 8.7 | 12.2 | 0.00 | 0.00 | 0.00 | 26 | 1003.9 |
| 20260505053036 | 68 | 226 | 7.8 | 13.0 | 0.00 | 0.00 | 0.00 | 25 | 1004.0 |
| 20260505052533 | 68 | 225 | 9.6 | 12.2 | 0.00 | 0.00 | 0.00 | 25 | 1004.1 |
| 20260505052031 | 68 | 234 | 9.6 | 10.4 | 0.00 | 0.00 | 0.00 | 25 | 1003.9 |
| 20260505051527 | 68 | 230 | 7.8 | 10.4 | 0.00 | 0.00 | 0.00 | 25 | 1004.3 |
| 20260505051026 | 69 | 228 | 7.8 | 11.3 | 0.00 | 0.00 | 0.00 | 24 | 1004.4 |
| 20260505050524 | 68 | 231 | 7.8 | 9.6 | 0.00 | 0.00 | 0.00 | 25 | 1003.9 |
| 20260505041451 | 70 | 246 | 12.2 | 17.4 | 0.00 | 0.00 | 0.00 | 24 | 1004.3 |
| 20260505040948 | 70 | 246 | 14.8 | 19.1 | 0.00 | 0.00 | 0.00 | 24 | 1004.3 |
| 20260505040446 | 70 | 249 | 11.3 | 16.5 | 0.00 | 0.00 | 0.00 | 24 | 1004.1 |
| 20260505035943 | 70 | 245 | 9.6 | 15.6 | 0.00 | 0.00 | 0.00 | 23 | 1004.3 |
| 20260505035439 | 70 | 247 | 11.3 | 16.5 | 0.00 | 0.00 | 0.00 | 24 | 1004.1 |
| 20260505034936 | 70 | 258 | 9.6 | 13.0 | 0.00 | 0.00 | 0.00 | 24 | 1004.1 |
| 20260505034432 | 71 | 245 | 9.6 | 13.9 | 0.00 | 0.00 | 0.00 | 23 | 1004.3 |
| 20260505033930 | 71 | 251 | 9.6 | 15.6 | 0.00 | 0.00 | 0.00 | 23 | 1004.1 |
| 20260505033426 | 71 | 245 | 13.9 | 16.5 | 0.00 | 0.00 | 0.00 | 23 | 1003.9 |
| 20260505032924 | 71 | 244 | 14.8 | 16.5 | 0.00 | 0.00 | 0.00 | 22 | 1004.1 |
| 20260505032421 | 72 | 238 | 13.0 | 16.5 | 0.00 | 0.00 | 0.00 | 22 | 1004.0 |
| 20260505031918 | 72 | 237 | 15.6 | 19.1 | 0.00 | 0.00 | 0.00 | 22 | 1004.1 |
| 20260505031415 | 71 | 237 | 12.2 | 16.5 | 0.00 | 0.00 | 0.00 | 22 | 1003.9 |
| 20260505030912 | 70 | 233 | 13.0 | 15.6 | 0.00 | 0.00 | 0.00 | 23 | 1004.1 |
| 20260505030408 | 70 | 225 | 12.2 | 14.8 | 0.00 | 0.00 | 0.00 | 23 | 1004.0 |
| 20260505025903 | 70 | 231 | 11.3 | 14.8 | 0.00 | 0.00 | 0.00 | 23 | 1003.8 |
| 20260505025401 | 70 | 234 | 10.4 | 13.9 | 0.00 | 0.00 | 0.00 | 24 | 1003.9 |
| 20260505024900 | 70 | 225 | 8.7 | 11.3 | 0.00 | 0.00 | 0.00 | 24 | 1004.0 |
| 20260505024357 | 70 | 227 | 9.6 | 13.9 | 0.00 | 0.00 | 0.00 | 24 | 1003.8 |
| 20260505023853 | 70 | 236 | 7.8 | 9.6 | 0.00 | 0.00 | 0.00 | 24 | 1003.6 |
| 20260505023351 | 70 | 240 | 8.7 | 10.4 | 0.00 | 0.00 | 0.00 | 24 | 1003.8 |
| 20260505022848 | 70 | 233 | 6.1 | 9.6 | 0.00 | 0.00 | 0.00 | 24 | 1003.6 |
| 20260505022345 | 70 | 231 | 7.0 | 8.7 | 0.00 | 0.00 | 0.00 | 24 | 1003.7 |
| 20260505021842 | 71 | 237 | 9.6 | 11.3 | 0.00 | 0.00 | 0.00 | 24 | 1003.7 |
| 20260505021338 | 71 | 230 | 9.6 | 10.4 | 0.00 | 0.00 | 0.00 | 24 | 1003.5 |
| 20260505020834 | 72 | 229 | 11.3 | 13.9 | 0.00 | 0.00 | 0.00 | 23 | 1003.6 |
| 20260505020330 | 72 | 235 | 7.8 | 13.0 | 0.00 | 0.00 | 0.00 | 24 | 1003.3 |
| 20260505015827 | 72 | 235 | 9.6 | 13.0 | 0.00 | 0.00 | 0.00 | 23 | 1003.5 |
| 20260505015324 | 73 | 235 | 12.2 | 17.4 | 0.00 | 0.00 | 0.00 | 23 | 1003.3 |
| 20260505014821 | 73 | 238 | 13.0 | 15.6 | 0.00 | 0.00 | 0.00 | 23 | 1003.1 |
| 20260505014318 | 73 | 234 | 14.8 | 16.5 | 0.00 | 0.00 | 0.00 | 23 | 1003.1 |
| 20260505013815 | 73 | 234 | 15.6 | 17.4 | 0.00 | 0.00 | 0.00 | 23 | 1003.2 |
| 20260505013312 | 74 | 246 | 11.3 | 17.4 | 0.00 | 0.00 | 0.00 | 23 | 1003.1 |
| 20260505012811 | 74 | 241 | 14.8 | 20.0 | 0.00 | 0.00 | 0.00 | 22 | 1003.1 |
| 20260505012308 | 74 | 238 | 14.8 | 20.9 | 0.00 | 0.00 | 0.00 | 22 | 1003.2 |
| 20260505011803 | 75 | 238 | 14.8 | 20.0 | 0.00 | 0.00 | 0.00 | 22 | 1003.1 |
| 20260505011301 | 75 | 235 | 17.4 | 20.9 | 0.00 | 0.00 | 0.00 | 22 | 1003.3 |
| 20260505010756 | 75 | 241 | 19.1 | 21.7 | 0.00 | 0.00 | 0.00 | 21 | 1003.5 |
| 20260505010253 | 75 | 243 | 13.9 | 18.2 | 0.00 | 0.00 | 0.00 | 22 | 1003.5 |
| 20260505005749 | 75 | 240 | 18.2 | 23.5 | 0.00 | 0.00 | 0.00 | 21 | 1003.6 |
| 20260505005246 | 75 | 242 | 19.1 | 23.5 | 0.00 | 0.00 | 0.00 | 21 | 1003.3 |
| 20260505004743 | 76 | 231 | 19.1 | 22.6 | 0.00 | 0.00 | 0.00 | 21 | 1003.5 |
| 20260505004239 | 76 | 240 | 20.9 | 24.3 | 0.00 | 0.00 | 0.00 | 21 | 1003.5 |
| 20260505003737 | 76 | 243 | 17.4 | 23.5 | 0.00 | 0.00 | 0.00 | 21 | 1003.3 |
| 20260505003234 | 76 | 239 | 19.1 | 26.1 | 0.00 | 0.00 | 0.00 | 21 | 1003.7 |
| 20260505002730 | 76 | 240 | 28.7 | 30.4 | 0.00 | 0.00 | 0.00 | 21 | 1003.6 |
| 20260505002228 | 77 | 238 | 23.5 | 27.8 | 0.00 | 0.00 | 0.00 | 21 | 1003.2 |
| 20260505001725 | 77 | 236 | 21.7 | 28.7 | 0.00 | 0.00 | 0.00 | 20 | 1003.7 |
| 20260505001223 | 77 | 251 | 20.9 | 30.4 | 0.00 | 0.00 | 0.00 | 20 | 1003.9 |
| 20260505000720 | 78 | 251 | 19.1 | 25.2 | 0.00 | 0.00 | 0.00 | 15 | 1003.7 |
| 20260505000218 | 78 | 251 | 17.4 | 26.1 | 0.00 | 0.00 | 0.00 | 14 | 1003.6 |
| 20260504235714 | 78 | 266 | 15.6 | 25.2 | 0.00 | 0.00 | 0.00 | 14 | 1003.6 |
| 20260504235210 | 78 | 255 | 23.5 | 27.8 | 0.00 | 0.00 | 0.00 | 13 | 1003.8 |
| 20260504234708 | 78 | 256 | 19.1 | 29.5 | 0.00 | 0.00 | 0.00 | 13 | 1003.8 |
| 20260504234204 | 78 | 266 | 15.6 | 25.2 | 0.00 | 0.00 | 0.00 | 13 | 1003.9 |
| 20260504233700 | 78 | 265 | 18.2 | 23.5 | 0.00 | 0.00 | 0.00 | 13 | 1003.9 |
| 20260504233156 | 78 | 247 | 23.5 | 31.3 | 0.00 | 0.00 | 0.00 | 13 | 1003.8 |
| 20260504232654 | 78 | 250 | 24.3 | 30.4 | 0.00 | 0.00 | 0.00 | 13 | 1003.9 |
| 20260504232151 | 78 | 260 | 23.5 | 27.8 | 0.00 | 0.00 | 0.00 | 13 | 1003.9 |
| 20260504231648 | 78 | 254 | 22.6 | 27.8 | 0.00 | 0.00 | 0.00 | 13 | 1004.1 |
| 20260504231144 | 78 | 241 | 27.8 | 33.0 | 0.00 | 0.00 | 0.00 | 13 | 1004.0 |
| 20260504230640 | 78 | 247 | 22.6 | 25.2 | 0.00 | 0.00 | 0.00 | 13 | 1003.8 |
| 20260504230139 | 78 | 254 | 18.2 | 26.9 | 0.00 | 0.00 | 0.00 | 13 | 1003.8 |
| 20260504225637 | 78 | 251 | 23.5 | 26.1 | 0.00 | 0.00 | 0.00 | 12 | 1003.7 |
| 20260504225133 | 78 | 258 | 25.2 | 30.4 | 0.00 | 0.00 | 0.00 | 12 | 1003.9 |
| 20260504224630 | 79 | 250 | 31.3 | 33.0 | 0.00 | 0.00 | 0.00 | 11 | 1004.0 |
| 20260504224126 | 79 | 262 | 18.2 | 26.1 | 0.00 | 0.00 | 0.00 | 13 | 1003.9 |
| 20260504223624 | 80 | 266 | 18.2 | 34.8 | 0.00 | 0.00 | 0.00 | 13 | 1004.0 |
| 20260504223119 | 80 | 263 | 17.4 | 26.9 | 0.00 | 0.00 | 0.00 | 13 | 1003.8 |
| 20260504222617 | 80 | 251 | 20.0 | 23.5 | 0.00 | 0.00 | 0.00 | 13 | 1004.0 |
| 20260504222114 | 80 | 255 | 13.9 | 21.7 | 0.00 | 0.00 | 0.00 | 13 | 1004.0 |
| 20260504221611 | 80 | 273 | 14.8 | 20.9 | 0.00 | 0.00 | 0.00 | 13 | 1004.4 |
| 20260504221108 | 80 | 260 | 15.6 | 26.1 | 0.00 | 0.00 | 0.00 | 13 | 1003.9 |
| 20260504220604 | 80 | 248 | 21.7 | 29.5 | 0.00 | 0.00 | 0.00 | 12 | 1004.3 |
| 20260504215558 | 80 | 264 | 17.4 | 21.7 | 0.00 | 0.00 | 0.00 | 14 | 1004.0 |
| 20260504215055 | 80 | 250 | 22.6 | 26.9 | 0.00 | 0.00 | 0.00 | 13 | 1004.0 |